Weather History for KEWK - September, 2013

Change the Weather History Date:

Thursday, September 26, 2013

  Actual Average Record
Temperature  
Mean Temperature 74 °F -  
Max Temperature 89 °F 73 °F 89 °F (2013)
Min Temperature 60 °F 51 °F 42 °F (1996)
Cooling Degree Days 10    
Growing Degree Days 24 (Base 50)    
Moisture  
Dew Point 55 °F    
Average Humidity 53    
Maximum Humidity 77    
Minimum Humidity 31    
Precipitation  
Precipitation 0.00 in - - ()
Sea Level Pressure  
Sea Level Pressure 29.81 in    
Wind  
Wind Speed 15 mph (SSE)    
Max Wind Speed 26 mph    
Max Gust Speed 38 mph    
Visibility 10 miles    
Events      
Averages and records for this station are not official NWS values.
T = Trace of Precipitation, MM = Missing Value Source: NWS Daily Summary

Daily Weather History Graph

Daily Weather History Graph

Search for Another Location

Airport or City:

Trip Planner

Search our weather history database for the weather conditions in past years. The results will help you decide how hot, cold, wet, or windy it might be!

Date:

Astronomy

Sep. 26, 2013 Rise Set
Actual Time 7:20 AM CDT 7:19 PM CDT
Civil Twilight 6:54 AM CDT 7:45 PM CDT
Nautical Twilight 6:23 AM CDT 8:16 PM CDT
Astronomical Twilight 5:52 AM CDT 8:47 PM CDT
Moon No Moon Rise 2:08 PM CDT (9/26)
Length of Visible Light 12h 51m
Length of Day
11h 58m
Waning Gibbous, 54% of the Moon is Illuminated
Sep 26
Waning Gibbous
Sep 26
Last Quarter
Oct 4
New
Oct 11
First Quarter
Oct 18
Full

Hourly Weather History & Observations

Time (CDT) Temp. Heat Index Dew Point Humidity Pressure Visibility Wind Dir Wind Speed Gust Speed Precip Events Conditions
12:15 AM 64.4 °F - 55.4 °F 73% 29.79 in 10.0 mi SE 13.8 mph - N/A   Clear
12:35 AM 64.4 °F - 55.4 °F 73% 29.79 in 10.0 mi SE 11.5 mph - N/A   Clear
12:55 AM 64.4 °F - 53.6 °F 68% 29.79 in 10.0 mi SE 11.5 mph - N/A   Clear
1:15 AM 64.4 °F - 53.6 °F 68% 29.78 in 10.0 mi SE 11.5 mph - N/A   Clear
1:35 AM 64.4 °F - 53.6 °F 68% 29.78 in 10.0 mi SE 13.8 mph 18.4 mph N/A   Clear
1:55 AM 64.4 °F - 53.6 °F 68% 29.79 in 10.0 mi SSE 11.5 mph - N/A   Clear
2:15 AM 64.4 °F - 53.6 °F 68% 29.79 in 10.0 mi SSE 12.7 mph - N/A   Clear
2:35 AM 64.4 °F - 53.6 °F 68% 29.79 in 10.0 mi SSE 12.7 mph - N/A   Clear
2:55 AM 64.4 °F - 53.6 °F 68% 29.79 in 10.0 mi SSE 13.8 mph - N/A   Clear
3:15 AM 64.4 °F - 53.6 °F 68% 29.79 in 10.0 mi SE 12.7 mph - N/A   Clear
3:35 AM 64.4 °F - 53.6 °F 68% 29.79 in 10.0 mi SE 15.0 mph - N/A   Clear
3:55 AM 64.4 °F - 53.6 °F 68% 29.80 in 10.0 mi SE 12.7 mph 18.4 mph N/A   Clear
4:15 AM 62.6 °F - 53.6 °F 72% 29.80 in 10.0 mi SE 11.5 mph - N/A   Clear
4:35 AM 62.6 °F - 53.6 °F 72% 29.80 in 10.0 mi SE 10.4 mph - N/A   Clear
4:55 AM 62.6 °F - 53.6 °F 72% 29.80 in 10.0 mi SE 11.5 mph - N/A   Clear
5:15 AM 62.6 °F - 53.6 °F 72% 29.80 in 10.0 mi SE 10.4 mph - N/A   Clear
5:35 AM 60.8 °F - 53.6 °F 77% 29.80 in 10.0 mi SE 11.5 mph - N/A   Clear
5:55 AM 60.8 °F - 53.6 °F 77% 29.80 in 10.0 mi SSE 11.5 mph - N/A   Clear
6:15 AM 60.8 °F - 53.6 °F 77% 29.80 in 10.0 mi SE 12.7 mph - N/A   Clear
6:35 AM 60.8 °F - 53.6 °F 77% 29.80 in 10.0 mi SE 12.7 mph - N/A   Clear
6:55 AM 60.8 °F - 53.6 °F 77% 29.80 in 10.0 mi SE 12.7 mph - N/A   Clear
7:15 AM 62.6 °F - 53.6 °F 72% 29.81 in 10.0 mi SSE 12.7 mph - N/A   Clear
7:35 AM 62.6 °F - 53.6 °F 72% 29.82 in 10.0 mi SSE 11.5 mph - N/A   Clear
7:55 AM 62.6 °F - 53.6 °F 72% 29.82 in 10.0 mi SSE 13.8 mph - N/A   Clear
8:15 AM 64.4 °F - 53.6 °F 68% 29.82 in 10.0 mi SSE 12.7 mph 17.3 mph N/A   Clear
8:35 AM 64.4 °F - 53.6 °F 68% 29.83 in 10.0 mi SSE 13.8 mph - N/A   Clear
8:55 AM 66.2 °F - 53.6 °F 64% 29.83 in 10.0 mi SSE 16.1 mph 20.7 mph N/A   Clear
9:15 AM 68.0 °F - 53.6 °F 60% 29.83 in 10.0 mi SSE 13.8 mph 20.7 mph N/A   Clear
9:35 AM 71.6 °F - 53.6 °F 53% 29.84 in 10.0 mi SSE 15.0 mph 21.9 mph N/A   Clear
9:55 AM 73.4 °F - 53.6 °F 50% 29.83 in 10.0 mi SSE 17.3 mph - N/A   Clear
10:15 AM 75.2 °F - 53.6 °F 47% 29.83 in 10.0 mi South 21.9 mph 27.6 mph N/A   Clear
10:35 AM 75.2 °F - 53.6 °F 47% 29.83 in 10.0 mi South 21.9 mph 28.8 mph N/A   Clear
10:55 AM 77.0 °F - 53.6 °F 44% 29.83 in 10.0 mi South 20.7 mph 27.6 mph N/A   Clear
11:15 AM 78.8 °F - 53.6 °F 42% 29.83 in 10.0 mi SSE 19.6 mph 26.5 mph N/A   Clear
11:35 AM 80.6 °F 80.5 °F 55.4 °F 42% 29.84 in 10.0 mi South 17.3 mph 26.5 mph N/A   Clear
11:55 AM 80.6 °F 80.5 °F 55.4 °F 42% 29.83 in 10.0 mi South 19.6 mph 26.5 mph N/A   Clear
12:15 PM 82.4 °F 81.7 °F 55.4 °F 39% 29.83 in 10.0 mi South 19.6 mph 23.0 mph N/A   Clear
12:35 PM 84.2 °F 83.0 °F 55.4 °F 37% 29.82 in 10.0 mi South 21.9 mph 26.5 mph N/A   Clear
12:55 PM 84.2 °F 83.0 °F 55.4 °F 37% 29.82 in 10.0 mi South 20.7 mph 25.3 mph N/A   Clear
1:15 PM 86.0 °F 84.5 °F 55.4 °F 35% 29.82 in 10.0 mi South 19.6 mph 28.8 mph N/A   Clear
1:35 PM 87.8 °F 86.5 °F 57.2 °F 35% 29.81 in 10.0 mi SSE 20.7 mph 28.8 mph N/A   Clear
1:55 PM 87.8 °F 86.5 °F 57.2 °F 35% 29.80 in 10.0 mi South 20.7 mph 27.6 mph N/A   Clear
2:15 PM 89.6 °F 88.1 °F 57.2 °F 33% 29.80 in 10.0 mi South 20.7 mph 29.9 mph N/A   Clear
2:35 PM 89.6 °F 88.1 °F 57.2 °F 33% 29.79 in 10.0 mi South 18.4 mph 28.8 mph N/A   Clear
2:55 PM 89.6 °F 88.1 °F 57.2 °F 33% 29.78 in 10.0 mi SSE 19.6 mph 29.9 mph N/A   Clear
3:15 PM 89.6 °F 88.1 °F 57.2 °F 33% 29.77 in 10.0 mi SSE 23.0 mph 31.1 mph N/A   Clear
3:35 PM 89.6 °F 88.1 °F 57.2 °F 33% 29.78 in 10.0 mi South 20.7 mph 29.9 mph N/A   Clear
3:55 PM 89.6 °F 88.1 °F 57.2 °F 33% 29.77 in 10.0 mi South 19.6 mph 31.1 mph N/A   Clear
4:15 PM 89.6 °F 88.1 °F 57.2 °F 33% 29.77 in 10.0 mi South 20.7 mph 28.8 mph N/A   Clear
4:35 PM 89.6 °F 87.7 °F 55.4 °F 31% 29.77 in 10.0 mi South 25.3 mph 35.7 mph N/A   Clear
4:55 PM 89.6 °F 87.7 °F 55.4 °F 31% 29.77 in 10.0 mi South 23.0 mph 32.2 mph N/A   Clear
5:15 PM 89.6 °F 87.7 °F 55.4 °F 31% 29.77 in 10.0 mi South 25.3 mph 31.1 mph N/A   Clear
5:35 PM 89.6 °F 87.7 °F 55.4 °F 31% 29.77 in 10.0 mi South 26.5 mph 38.0 mph N/A   Clear
5:55 PM 87.8 °F 86.1 °F 55.4 °F 33% 29.78 in 10.0 mi SSE 20.7 mph 32.2 mph N/A   Clear
6:15 PM 87.8 °F 86.1 °F 55.4 °F 33% 29.78 in 10.0 mi South 18.4 mph 33.4 mph N/A   Clear
6:35 PM 86.0 °F 84.5 °F 55.4 °F 35% 29.78 in 10.0 mi SSE 17.3 mph 25.3 mph N/A   Clear
6:55 PM 84.2 °F 83.0 °F 55.4 °F 37% 29.79 in 10.0 mi SSE 17.3 mph 21.9 mph N/A   Clear
7:15 PM 82.4 °F 81.7 °F 55.4 °F 39% 29.79 in 10.0 mi SSE 18.4 mph 25.3 mph N/A   Clear
7:35 PM 82.4 °F 81.7 °F 55.4 °F 39% 29.79 in 10.0 mi SSE 16.1 mph 21.9 mph N/A   Clear
7:55 PM 80.6 °F 80.5 °F 55.4 °F 42% 29.79 in 10.0 mi SSE 13.8 mph 20.7 mph N/A   Clear
8:15 PM 80.6 °F 80.5 °F 55.4 °F 42% 29.80 in 10.0 mi SE 12.7 mph - N/A   Clear
8:35 PM 78.8 °F - 57.2 °F 47% 29.81 in 10.0 mi SE 13.8 mph 17.3 mph N/A   Clear
8:55 PM 77.0 °F - 59.0 °F 54% 29.82 in 10.0 mi SE 16.1 mph 19.6 mph N/A   Clear
9:15 PM 75.2 °F - 59.0 °F 57% 29.82 in 10.0 mi SE 15.0 mph - N/A   Clear
9:35 PM 75.2 °F - 59.0 °F 57% 29.83 in 10.0 mi SSE 16.1 mph 20.7 mph N/A   Clear
9:55 PM 75.2 °F - 59.0 °F 57% 29.83 in 10.0 mi SSE 13.8 mph - N/A   Clear
10:15 PM 73.4 °F - 57.2 °F 57% 29.84 in 10.0 mi SSE 11.5 mph 18.4 mph N/A   Clear
10:35 PM 73.4 °F - 57.2 °F 57% 29.84 in 10.0 mi SSE 11.5 mph - N/A   Clear
10:55 PM 73.4 °F - 57.2 °F 57% 29.84 in 10.0 mi SSE 13.8 mph 20.7 mph N/A   Clear
11:15 PM 73.4 °F - 57.2 °F 57% 29.84 in 10.0 mi SSE 13.8 mph 18.4 mph N/A   Clear
11:35 PM 73.4 °F - 55.4 °F 53% 29.84 in 10.0 mi SSE 15.0 mph 20.7 mph N/A   Clear
11:55 PM 73.4 °F - 55.4 °F 53% 29.85 in 10.0 mi SSE 16.1 mph 26.5 mph N/A   Clear